Location: Chandrammap?lem
(16.9200°N, 81.0051°E)
Time: 19:40:08
(UTC+00:00)

CZ-4C R/B - Pass Details

Date: 29 May 2024
Orbit: 528 x 1465 km, 63.4° (Epoch: 14 June)

Event Time Altitude Azimuth Distance (km) Brightness Sun altitude
Exits shadow 21:58:21 12° 332° (NNW) 1,806 4.0 -26.6°
Drops below altitude 10° 21:59:02 10° 339° (NNW) 1,964 4.3 -26.5°
Sets 22:02:22 0° 3° (N) 3,023 5.6 -25.9°
